Tracking 31011 objects as of 12-Jul-2025
HD Live streaming from Space Station
objects crossing your sky now

SL-8 DEB

Track SL-8 DEB now!
10-day predictions


NORAD ID: 39702
Int'l Code: 1991-009DR
Perigee: 1,472.0 km
Apogee: 1,773.1 km
Inclination: 74.2 °
Period: 118.5 minutes
Semi major axis: 7993 km
RCS: 0.0183 m2 (small)
Launch date: February 12, 1991
Source: Commonwealth of Independent States (former USSR) (CIS)
Launch site: PLESETSK MISSILE AND SPACE COMPLEX (PKMTR)

Note: This is SATELLITE DEBRIS
Your satellite tracking list
Your tracking list is empty




NASA's NSSDC Master Catalog

Two Line Element Set (TLE):
1 39702U 91009DR  25191.53020893 -.00000155  00000-0 -13828-2 0  9995
2 39702  74.2308 234.3734 0188356 337.9082  21.3909 12.14765616416022
Source of the keplerian elements: AFSPC